星链-32142 (STARLINK-32142)

导读

STARLINK-32142是美国SpaceX公司星链星座的卫星,于2024年7月28日,由猎鹰9火箭在加州范登堡发射场执行Starlink Group 9-4任务时成功发射入轨,属于第二代星链卫星。本次发射与4小时前另一发任务创下SpaceX发射间隔第三短纪录,一同为星链巨型星座扩容,助力为全球用户提供低延迟高速卫星互联网服务,截至发射当日SpaceX已累计发射超6800颗星链卫星。

基本信息
目录编号:
60291
目录名称:
STARLINK-32142
国际标识:
2024-132P
轨道中心:
EARTH
卫星名称:
星链-32142 (STARLINK-32142)
卫星全名:
星链-32142 (STARLINK-32142)
卫星状态:
在轨 (已飞行775 天)
发射日期:
2024-07-28 UTC
国别 :
美国 (US)
星等 :
--
轨道信息
数据来源 国际轨道数据 AOE轨道数据
星历时间 2026-09-10T17:07:24+0800
20小时前
查看轨道信息
2026-09-10T07:00:00+0800
1天前
查看轨道信息
半长轴 6840.878km 6840.898km
偏心率 0.0001211 0.0001247
轨道倾角 53.159° 53.161°
近地点辐角 78.564° 66.995°
升交点赤经 272.697° 274.671°
平近点角 281.550° 121.825°
近地点 461.912km 461.907km
远地点 463.57km 463.615km
周期 93.849分钟 93.849分钟
每日圈数 15.343873 15.343807
详细信息
卫星平台:
Starlink v2.0 mini
运营商:
太空探索技术公司
运营商所在国:
美国
制造商(研发单位):
太空探索技术公司
制造商所在国:
美国
使用方式:
暂无
卫星简介
星链(Starlink)计划是由太空探索技术公司(SpaceX)提出的一个巨型低轨卫星互联网星座项目,计划在2019年至2024年间在太空搭建由约1.2万颗卫星组成的“星链”网络,其中1584颗将部署在地球上空550千米处的近地轨道,并从2020年开始工作。该卫星仍在工作。
2D轨道图
3D轨道图
轨道高度分析图
轨道倾角分析图
轨道综合分析图
查看轨道综合分析图
与全量物体交会距离演化趋势
与全量物体交会风险概率演化趋势